Location: Hamilton
(37.7830°S, 175.2830°E)
Time: 23:23:16
(UTC+13:00)

Cosmos 540 Rocket - Pass Details

Date: 24 January 2019
Orbit: 741 x 753 km, 74.1° (Epoch: 20 February)

Event Time Altitude Azimuth Distance (km) Brightness Sun altitude
Rises 22:09:37 0° 191° (SSW) 3,239 7.6 -15.9°
Reaches altitude 10° 22:12:08 10° 184° (S) 2,306 6.6 -16.3°
Maximum altitude 22:17:05 42° 113° (ESE) 1,079 4.1 -17.0°
Enters shadow 22:19:07 29° 65° (ENE) 1,363 4.2 -17.3°
